This is the latest recevied weather packets stored in our database for station/object IW1RID-3. If no packets are shown the sender has not sent any weather packets the latest 10 day(s).
| Time | Temp. | Humidity | Pressure | Rain* | Wind** | Luminosity | Snow |
|---|---|---|---|---|---|---|---|
| 1788304945 | 21.11° C | 79% | 1076.1 hPa | - | - | - | - |
| 1788303740 | 21.11° C | 78% | 1076.2 hPa | - | - | - | - |
| 1788302536 | 21.67° C | 78% | 1076.2 hPa | - | - | - | - |
| 1788301331 | 22.22° C | 73% | 1076.1 hPa | - | - | - | - |
| 1788300126 | 22.78° C | 73% | 1075.9 hPa | - | - | - | - |
| 1788298922 | 22.78° C | 76% | 1075.9 hPa | - | - | - | - |
| 1788297717 | 22.78° C | 76% | 1075.9 hPa | - | - | - | - |
| 1788296513 | 22.78° C | 76% | 1075.9 hPa | - | - | - | - |
| 1788295308 | 23.89° C | 69% | 1075.7 hPa | - | - | - | - |
| 1788294103 | 23.89° C | 71% | 1075.6 hPa | - | - | - | - |
| 1788292899 | 23.89° C | 73% | 1075.5 hPa | - | - | - | - |
| 1788291694 | 24.44° C | 70% | 1075.5 hPa | - | - | - | - |
| 1788290489 | 23.89° C | 76% | 1075.4 hPa | - | - | - | - |
| 1788289284 | 24.44° C | 72% | 1075.3 hPa | - | - | - | - |
| 1788288079 | 26.11° C | 68% | 1075.1 hPa | - | - | - | - |
| 1788286874 | 26.67° C | 63% | 1075 hPa | - | - | - | - |
| 1788285668 | 27.22° C | 60% | 1074.9 hPa | - | - | - | - |
| 1788284463 | 27.78° C | 59% | 1074.7 hPa | - | - | - | - |
| 1788283258 | 28.33° C | 56% | 1074.8 hPa | - | - | - | - |
| 1788282054 | 30.56° C | 50% | 1074.9 hPa | - | - | - | - |
| 1788280849 | 31.11° C | 50% | 1075.1 hPa | - | - | - | - |
| 1788279645 | 31.67° C | 49% | 1075.2 hPa | - | - | - | - |
| 1788278439 | 30.56° C | 52% | 1075.4 hPa | - | - | - | - |
| 1788277235 | 31.11° C | 53% | 1075.3 hPa | - | - | - | - |
| 1788276030 | 31.67° C | 54% | 1075.3 hPa | - | - | - | - |
* Rain since midnight (hover to see other rain measurements)
** Current wind speed in m/s (hover to see current wind gust speed)